Coventry, United Kingdom

1:11 PM BST on August 19, 2017 (GMT +0100)
Coventry

Weather History for EGBE - December, 2013

Change the Weather History Date:

Monday, December 16, 2013

  Actual Average Record
Temperature  
Mean Temperature 50 °F -  
Max Temperature 57 °F 43 °F 57 °F (2013)
Min Temperature 44 °F 34 °F 24 °F (2003)
Degree Days  
Heating Degree Days 14    
Moisture  
Dew Point 44 °F    
Average Humidity 79    
Maximum Humidity 88    
Minimum Humidity 50    
Precipitation  
Precipitation 0.00 in - - ()
Sea Level Pressure  
Sea Level Pressure 29.98 in    
Wind  
Wind Speed 11 mph ()    
Max Wind Speed 22 mph    
Max Gust Speed 32 mph    
Visibility 6.0 miles    
Events Rain    
Averages and records for this station are not official NWS values.
T = Trace of Precipitation, MM = Missing Value Source: Averaged Metar Reports

Daily Weather History Graph

Daily Weather History Graph

Search for Another Location

Airport or City:

Trip Planner

Search our weather history database for the weather conditions in past years. The results will help you decide how hot, cold, wet, or windy it might be!

Date:

Astronomy

Dec. 16, 2013 Rise Set
Actual Time 8:10 AM GMT 3:52 PM GMT
Civil Twilight 7:29 AM GMT 4:34 PM GMT
Nautical Twilight 6:44 AM GMT 5:18 PM GMT
Astronomical Twilight 6:03 AM GMT 5:59 PM GMT
Moon 3:39 PM GMT (12/16) 6:58 AM GMT (12/16)
Length of Visible Light 9h 05m
Length of Day
7h 42m
Waxing Gibbous, 99% of the Moon is Illuminated
Dec 16
Waxing Gibbous
Dec 17
Full
Dec 25
Last Quarter
Jan 1
New
Jan 8
First Quarter

Hourly Weather History & Observations

Time (GMT) Temp. Windchill Dew Point Humidity Pressure Visibility Wind Dir Wind Speed Gust Speed Precip Events Conditions
6:50 AM 57.2 °F - 51.8 °F 82% 29.83 in 4.3 mi SSW 18.4 mph - N/A Rain Light Rain
7:20 AM 55.4 °F - 51.8 °F 88% 29.83 in 5.0 mi SW 15.0 mph - N/A Rain Heavy Rain
7:50 AM 55.4 °F - 51.8 °F 88% 29.83 in 6.2 mi SW 13.8 mph - N/A Rain Light Rain
8:20 AM 55.4 °F - 51.8 °F 88% 29.83 in 6.2 mi SSW 12.7 mph - N/A   Scattered Clouds
8:50 AM 55.4 °F - 50.0 °F 82% 29.83 in 6.2 mi SSW 15.0 mph - N/A   Mostly Cloudy
9:20 AM 55.4 °F - 50.0 °F 82% 29.83 in 6.2 mi SSW 21.9 mph - N/A   Scattered Clouds
9:50 AM 57.2 °F - 50.0 °F 77% 29.86 in 6.2 mi SW 16.1 mph - N/A   Scattered Clouds
10:20 AM 57.2 °F - 50.0 °F 77% 29.86 in 6.2 mi SW 19.6 mph 32.2 mph N/A Rain Light Rain
10:50 AM 55.4 °F - 50.0 °F 82% 29.89 in 2.5 mi SW 19.6 mph - N/A Rain Rain
11:20 AM 53.6 °F - 50.0 °F 88% 29.92 in 6.2 mi SW 16.1 mph - N/A Rain Light Rain
11:50 AM 53.6 °F - 50.0 °F 88% 29.92 in 6.2 mi SW 13.8 mph - N/A   Scattered Clouds
12:20 PM 53.6 °F - 48.2 °F 82% 29.92 in 6.2 mi SW 13.8 mph - N/A   Mostly Cloudy
12:50 PM 53.6 °F - 48.2 °F 82% 29.92 in 6.2 mi West 13.8 mph - N/A   Mostly Cloudy
1:20 PM 51.8 °F - 44.6 °F 76% 29.95 in 6.2 mi West 11.5 mph - N/A   Mostly Cloudy
1:50 PM 50.0 °F - 44.6 °F 82% 29.95 in 6.2 mi West 11.5 mph - N/A   Partly Cloudy
2:20 PM 50.0 °F - 42.8 °F 76% 29.98 in 6.2 mi West 9.2 mph - N/A   Partly Cloudy
2:50 PM 50.0 °F - 41.0 °F 71% 29.98 in 6.2 mi West 10.4 mph - N/A   Partly Cloudy
3:20 PM 50.0 °F - 39.2 °F 66% 30.01 in 6.2 mi West 12.7 mph - N/A   Partly Cloudy
3:50 PM 48.2 °F - 39.2 °F 71% 30.01 in 6.2 mi West 4.6 mph - N/A   Partly Cloudy
4:20 PM 48.2 °F - 41.0 °F 76% 30.01 in 6.2 mi West 6.9 mph - N/A   Partly Cloudy
4:50 PM 48.2 °F - 39.2 °F 71% 30.04 in 6.2 mi West 5.8 mph - N/A   Partly Cloudy
5:20 PM 46.4 °F - 39.2 °F 76% 30.04 in 6.2 mi Variable 2.3 mph - N/A   Partly Cloudy
5:50 PM 44.6 °F 43.1 °F 41.0 °F 87% 30.04 in - SSW 3.5 mph - N/A   Clear
6:20 PM 44.6 °F 43.1 °F 41.0 °F 87% 30.06 in - Variable 3.5 mph - N/A   Clear
6:50 PM 44.6 °F 42.2 °F 41.0 °F 87% 30.06 in 6.2 mi SSW 4.6 mph - N/A   Partly Cloudy
7:20 PM 44.6 °F 42.2 °F 41.0 °F 87% 30.06 in 6.2 mi South 4.6 mph - N/A   Partly Cloudy
7:50 PM 44.6 °F 42.2 °F 41.0 °F 87% 30.09 in - SSW 4.6 mph - N/A   Clear
8:20 PM 44.6 °F 41.4 °F 41.0 °F 87% 30.09 in - SSW 5.8 mph - N/A   Clear
8:50 PM 46.4 °F 43.5 °F 41.0 °F 81% 30.09 in - SW 5.8 mph - N/A   Clear
9:20 PM 46.4 °F 44.3 °F 41.0 °F 81% 30.09 in 6.2 mi WSW 4.6 mph - N/A   Partly Cloudy
9:50 PM 46.4 °F 42.9 °F 39.2 °F 76% 30.09 in 6.2 mi WSW 6.9 mph - N/A   Partly Cloudy
10:20 PM 46.4 °F 42.9 °F 35.6 °F 66% 30.09 in 6.2 mi South 6.9 mph - N/A   Partly Cloudy
10:50 PM 46.4 °F 41.9 °F 28.4 °F 50% 30.12 in 6.2 mi West 9.2 mph 21.9 mph N/A   Scattered Clouds
11:20 PM 46.4 °F 40.7 °F 32.0 °F 57% 30.12 in 6.2 mi WSW 12.7 mph - N/A Rain Light Rain